Aérodrome :
LOGIN :

S'inscrire | Disclaimer

   EN    FR    IT 

 










Légende :    VFR   VFR Marginal   IFR   IFR Intensif   IFR Très Intensif
Visi : 
Plafond : 
>= 8 km
>= 3000ft
5 à 8 km
1000 à 3000 ft
1500m à 5 km
500 à 1000 ft
800 à 1500m
200 à 500 ft
< 800m
< 200 ft
Symboles :   Orages  Brouillard  Fortes neiges  Fortes précipitations  Vent > 20 kt
SIGMETs :   Divers  Orages  Givrage  Turbulence  Onde Orograph.  Cendres Volcan.







- Altitude de l'aérodrome : 2776 ft
- Code IATA : VLL


LEVD - Valladolid

DERNIER METAR :
  • 211330Z 06005KT 020V150 CAVOK 11/M02 Q1026

METARs EXPIRÉS :
  • 211300Z 07003KT CAVOK 11/M03 Q1026
  • 211230Z 04005KT 320V110 CAVOK 10/M03 Q1027
  • 211200Z 07006KT 350V160 CAVOK 10/M02 Q1027
  • 211130Z 08005KT 030V150 CAVOK 09/M01 Q1027
  • 211100Z 06007KT CAVOK 08/M01 Q1027

TAF TAF LEVD
Valide du 21 à 12h jusqu'au 22 à 12h UTC


211100Z 2112/2212 VRB05KT CAVOK TX14/2115Z TNM02/2206Z
TEMPO 2112/2114 06010KT
Pas de NOTAMs connus pour ce terrain.



MET'MAP, la Météo Aéronautique d'un coup d'oeil ! - Copyright ORBIFLY Décembre 2007 - Disclaimer

ORBIFLY MET'MAP TEAM :

Programmation & Développement : Alexandra Zaïnal
Conception & Développement : Baudouin d'Aumeries
Co-Programmation & Développement : Marc-Olivier Méhu
Soutien technique & logistique : Manuel Goepfert

Contact : metmap@orbifly.com




SOURCES & CREDITS :

   NOAA